User: anonymous   Login
Location: ??
(35.4032°N, 139.3073°E)
Time: 02:28:14
(UTC+00:00)
Language:

Cosmos 2026 Rocket - Orbit

View from above orbital plane
View from above orbital plane
View from above satellite
View from above satellite

Ground track
Ground track

The orbit data is extracted from the following two-line orbital elements,

1 20046U 89042B   24174.56690452  .00000199  00000-0  17995-3 0  9993
2 20046  82.9361 193.1416 0043495  82.5379 278.0718 13.78441949762005
Epoch (UTC): 22 June 2024 13:36:20
Eccentricity: 0.0043495
inclination: 82.9361°
perigee height: 937 km
apogee height: 1001 km
right ascension of ascending node: 193.1416°
argument of perigee: 82.5379°
revolutions per day: 13.78441949
mean anomaly at epoch: 278.0718°
orbit number at epoch: 76200

The dashed part of the orbit path shows where the satellite is in the earth's shadow,  

DLR